Погода в Шклярска-Порембе

Польша     50°49′46″N   15°29′47″E
темп.,
°C
ветер,
м/с
пор.,
м/с
влажн.,
%
обл.,
%
осадки,
мм/ч
давл.,
гПа
погр.,
м
2 марта, вт
вт201:00+1ююв01750 0.0 103622
04:000юв01760 0.0 103522
07:00+1ю11700 0.0 103522
10:00+7ююз11690 0.0 1035113
13:00+10юз10600 0.0 1035373
16:00+9ссз01730 0.0 103469
19:00+3юв11830 0.0 103422
22:00+3ю11790 0.0 103422
3 марта, ср
ср301:00+2ююз11680 0.0 103422
04:00+1ююз11560 0.0 103222
07:00+1ююз12660 0.0 103222
10:00+6ююз226548 0.0 1030156
13:00+7ююз236461 0.0 1029316
16:00+6юз22750 0.0 1026266
19:00+2юз12810 0.0 102522
22:00+3юз128135 0.0 102327
4 марта, чт
чт401:00+2зюз128653 0.0 102225
04:00+2зюз129193 0.0 102025
07:00+1зюз129496 0.0 101927
10:00+6зюз258218 0.0 1017455
13:00+8зюз267346 0.0 1016813
16:00+5зюз249499 1.9 1013308
19:00+3ссз359799 9.2 1014366
22:00+1с2597100 0.4 1015332
5 марта, пт
пт501:00−1ссз2593100 0.8 1016447
04:00−2ссв3596100 0.8 1017383
07:00−4ссв379294 1.9 1020585
10:00−4ссв478375 0.6 1022887
13:00−3с357069 0.7 10231016
16:00−3с367439 0.1 10241136
19:00−5ссз288348 0.3 1027330
22:00−5с278434 0.1 1029721
6 марта, сб
сб601:00−7с248729 0.1 1031291
04:00−8с239140 0.0 1032214
07:00−7с128947 0.0 1033121
10:00−3ссз12530 0.0 1034860
13:00−1сз22480 0.0 10331173
16:00−2зсз23520 0.0 1031905
19:00−5з11670 0.0 103121
22:00−5зюз12670 0.0 103126